Seaexpressii — HO4619 — position and weather

sailwx.info

Track history (hours):
 
Tides and Currents Weather Stations Pressure Air Temp Water Temp Dewpoint Dewpoint Depression Visibility Wind Speed Wind Dir Waves Ship Positions

Seaexpressii

Last reported at 2014-Oct-23 02:27 UTC. Time now 2014-Oct-25 07:09 UTC.
Position N 26°01' W 079°32'.

Length 37 m; draft 2 m.

Type: Ship. MMSI: 356449000.

Date/timePositionNaut miles runAvg speedWind from/ knotsBaromVisibWave heightAir tempDewpointWater temp
2014-Oct-23 02:27N 26°01' W 079°32'910.0
2014-Oct-23 01:33N 26°01' W 079°42'10 9.6
2014-Oct-23 00:33N 26°02' W 079°53'9 9.5
2014-Oct-22 23:34N 26°04' W 080°03'4 4.4
2014-Oct-22 22:33N 26°04' W 080°08'0 0.0
2014-Oct-22 21:27N 26°04' W 080°08'0 0.0
2014-Oct-22 20:27N 26°04' W 080°08'0 0.0
2014-Oct-22 19:30N 26°04' W 080°08'0 0.0
2014-Oct-22 18:30N 26°04' W 080°08'0 0.0
2014-Oct-22 17:33N 26°04' W 080°08'0 0.0
2014-Oct-22 16:33N 26°04' W 080°08'0 0.0
2014-Oct-22 15:33N 26°04' W 080°08'0 0.0
2014-Oct-22 14:33N 26°04' W 080°08'0 0.0
2014-Oct-22 13:30N 26°04' W 080°08'0 0.0
2014-Oct-22 12:33N 26°04' W 080°08'0 0.0
2014-Oct-22 11:33N 26°04' W 080°08'0 0.0
2014-Oct-22 10:24N 26°04' W 080°08'0 0.0
2014-Oct-22 09:24N 26°04' W 080°08'0 0.0
2014-Oct-22 08:27N 26°04' W 080°08'0 0.0
2014-Oct-22 07:31N 26°04' W 080°08'0 0.0
2014-Oct-22 06:27N 26°04' W 080°08'0 0.0
2014-Oct-22 05:27N 26°04' W 080°08'0 0.0
2014-Oct-22 04:30N 26°04' W 080°08'0 0.0
2014-Oct-22 03:30N 26°04' W 080°08'0 0.0
2014-Oct-22 02:33N 26°04' W 080°08'0 0.0
2014-Oct-22 01:33N 26°04' W 080°08'0 0.0
2014-Oct-22 00:33N 26°04' W 080°08'0 0.0
2014-Oct-21 23:33N 26°04' W 080°08'0 0.0
2014-Oct-21 22:33N 26°04' W 080°08'0 0.0
2014-Oct-21 21:33N 26°04' W 080°08'0 0.0
2014-Oct-21 20:24N 26°04' W 080°08'0 0.0
2014-Oct-21 19:24N 26°04' W 080°08'0 0.0
2014-Oct-21 18:24N 26°04' W 080°08'0 0.0
2014-Oct-21 17:27N 26°04' W 080°08'0 0.0
2014-Oct-21 16:27N 26°04' W 080°08'0 0.0
2014-Oct-21 15:30N 26°04' W 080°08'0 0.0
2014-Oct-21 14:30N 26°04' W 080°08'0 0.0
2014-Oct-21 13:30N 26°04' W 080°08'0 0.0
2014-Oct-21 12:30N 26°04' W 080°08'0 0.0
2014-Oct-21 11:33N 26°04' W 080°08'0 0.0
2014-Oct-21 10:33N 26°04' W 080°08'0 0.0
2014-Oct-21 09:33N 26°04' W 080°08'0 0.0
2014-Oct-21 08:33N 26°04' W 080°08'0 0.0
2014-Oct-21 07:33N 26°04' W 080°08'0 0.0
2014-Oct-21 06:33N 26°04' W 080°08'0 0.0
2014-Oct-21 05:24N 26°04' W 080°08'0 0.0
2014-Oct-21 04:27N 26°04' W 080°08'0 0.0
2014-Oct-21 03:27N 26°04' W 080°08'0 0.0
2014-Oct-21 02:27N 26°04' W 080°08'0 0.0
2014-Oct-21 01:30N 26°04' W 080°08'0 0.0
2014-Oct-21 00:30N 26°04' W 080°08'0 0.0
2014-Oct-20 23:15N 26°04' W 080°08'0 0.0
2014-Oct-20 22:30N 26°04' W 080°08'0 0.0
2014-Oct-20 21:33N 26°04' W 080°08'0 0.0
2014-Oct-20 20:33N 26°04' W 080°08'3 3.5
2014-Oct-20 19:33N 26°06' W 080°05'1010.3
2014-Oct-20 18:33N 26°02' W 079°54'1110.8
2014-Oct-20 17:33N 25°57' W 079°43'1010.3
2014-Oct-20 16:33N 25°53' W 079°33'13 0.3
2014-Oct-19 01:30N 26°07' W 079°32'9 9.8
2014-Oct-19 00:33N 26°05' W 079°42'10 9.7
2014-Oct-18 23:33N 26°05' W 079°53'10 9.7
2014-Oct-18 22:33N 26°05' W 080°03'4 4.3
2014-Oct-18 21:33N 26°04' W 080°08'0 0.0
2014-Oct-18 20:27N 26°04' W 080°08'0 0.0
2014-Oct-18 19:27N 26°04' W 080°08'0 0.0
2014-Oct-18 18:27N 26°04' W 080°08'0 0.0
2014-Oct-18 17:33N 26°04' W 080°08'5 4.5
2014-Oct-18 16:33N 26°06' W 080°03'1110.6
2014-Oct-18 15:33N 26°01' W 079°52'1111.0
2014-Oct-18 14:33N 25°56' W 079°42'1110.6
2014-Oct-18 13:28N 25°51' W 079°30'  
2014-Oct-13 08:22N 26°01' W 079°26'10 8.7
2014-Oct-13 07:13N 26°03' W 079°37'6 8.6
2014-Oct-13 06:30N 26°03' W 079°44'8 8.8
2014-Oct-13 05:33N 26°02' W 079°53'8 8.3
2014-Oct-13 04:33N 26°02' W 080°02'5 5.1
2014-Oct-13 03:33N 26°04' W 080°08'  
Track history (hours):
 
Tides and Currents Weather Stations Pressure Air Temp Water Temp Dewpoint Dewpoint Depression Visibility Wind Speed Wind Dir Waves Ship Positions

Seaexpressii

Last reported at 2014-Oct-23 02:27 UTC. Time now 2014-Oct-25 07:09 UTC.
Position N 26°01' W 079°32'.

Length 37 m; draft 2 m.

Type: Ship. MMSI: 356449000.

Date/timePositionNaut miles runAvg speedWind from/ knotsBaromVisibWave heightAir tempDewpointWater temp
2014-Oct-23 02:27N 26°01' W 079°32'910.0
2014-Oct-23 01:33N 26°01' W 079°42'10 9.6
2014-Oct-23 00:33N 26°02' W 079°53'9 9.5
2014-Oct-22 23:34N 26°04' W 080°03'4 4.4
2014-Oct-22 22:33N 26°04' W 080°08'0 0.0
2014-Oct-22 21:27N 26°04' W 080°08'0 0.0
2014-Oct-22 20:27N 26°04' W 080°08'0 0.0
2014-Oct-22 19:30N 26°04' W 080°08'0 0.0
2014-Oct-22 18:30N 26°04' W 080°08'0 0.0
2014-Oct-22 17:33N 26°04' W 080°08'0 0.0
2014-Oct-22 16:33N 26°04' W 080°08'0 0.0
2014-Oct-22 15:33N 26°04' W 080°08'0 0.0
2014-Oct-22 14:33N 26°04' W 080°08'0 0.0
2014-Oct-22 13:30N 26°04' W 080°08'0 0.0
2014-Oct-22 12:33N 26°04' W 080°08'0 0.0
2014-Oct-22 11:33N 26°04' W 080°08'0 0.0
2014-Oct-22 10:24N 26°04' W 080°08'0 0.0
2014-Oct-22 09:24N 26°04' W 080°08'0 0.0
2014-Oct-22 08:27N 26°04' W 080°08'0 0.0
2014-Oct-22 07:31N 26°04' W 080°08'0 0.0
2014-Oct-22 06:27N 26°04' W 080°08'0 0.0
2014-Oct-22 05:27N 26°04' W 080°08'0 0.0
2014-Oct-22 04:30N 26°04' W 080°08'0 0.0
2014-Oct-22 03:30N 26°04' W 080°08'0 0.0
2014-Oct-22 02:33N 26°04' W 080°08'0 0.0
2014-Oct-22 01:33N 26°04' W 080°08'0 0.0
2014-Oct-22 00:33N 26°04' W 080°08'0 0.0
2014-Oct-21 23:33N 26°04' W 080°08'0 0.0
2014-Oct-21 22:33N 26°04' W 080°08'0 0.0
2014-Oct-21 21:33N 26°04' W 080°08'0 0.0
2014-Oct-21 20:24N 26°04' W 080°08'0 0.0
2014-Oct-21 19:24N 26°04' W 080°08'0 0.0
2014-Oct-21 18:24N 26°04' W 080°08'0 0.0
2014-Oct-21 17:27N 26°04' W 080°08'0 0.0
2014-Oct-21 16:27N 26°04' W 080°08'0 0.0
2014-Oct-21 15:30N 26°04' W 080°08'0 0.0
2014-Oct-21 14:30N 26°04' W 080°08'0 0.0
2014-Oct-21 13:30N 26°04' W 080°08'0 0.0
2014-Oct-21 12:30N 26°04' W 080°08'0 0.0
2014-Oct-21 11:33N 26°04' W 080°08'0 0.0
2014-Oct-21 10:33N 26°04' W 080°08'0 0.0
2014-Oct-21 09:33N 26°04' W 080°08'0 0.0
2014-Oct-21 08:33N 26°04' W 080°08'0 0.0
2014-Oct-21 07:33N 26°04' W 080°08'0 0.0
2014-Oct-21 06:33N 26°04' W 080°08'0 0.0
2014-Oct-21 05:24N 26°04' W 080°08'0 0.0
2014-Oct-21 04:27N 26°04' W 080°08'0 0.0
2014-Oct-21 03:27N 26°04' W 080°08'0 0.0
2014-Oct-21 02:27N 26°04' W 080°08'0 0.0
2014-Oct-21 01:30N 26°04' W 080°08'0 0.0
2014-Oct-21 00:30N 26°04' W 080°08'0 0.0
2014-Oct-20 23:15N 26°04' W 080°08'0 0.0
2014-Oct-20 22:30N 26°04' W 080°08'0 0.0
2014-Oct-20 21:33N 26°04' W 080°08'0 0.0
2014-Oct-20 20:33N 26°04' W 080°08'3 3.5
2014-Oct-20 19:33N 26°06' W 080°05'1010.3
2014-Oct-20 18:33N 26°02' W 079°54'1110.8
2014-Oct-20 17:33N 25°57' W 079°43'1010.3
2014-Oct-20 16:33N 25°53' W 079°33'13 0.3
2014-Oct-19 01:30N 26°07' W 079°32'9 9.8
2014-Oct-19 00:33N 26°05' W 079°42'10 9.7
2014-Oct-18 23:33N 26°05' W 079°53'10 9.7
2014-Oct-18 22:33N 26°05' W 080°03'4 4.3
2014-Oct-18 21:33N 26°04' W 080°08'0 0.0
2014-Oct-18 20:27N 26°04' W 080°08'0 0.0
2014-Oct-18 19:27N 26°04' W 080°08'0 0.0
2014-Oct-18 18:27N 26°04' W 080°08'0 0.0
2014-Oct-18 17:33N 26°04' W 080°08'5 4.5
2014-Oct-18 16:33N 26°06' W 080°03'1110.6
2014-Oct-18 15:33N 26°01' W 079°52'1111.0
2014-Oct-18 14:33N 25°56' W 079°42'1110.6
2014-Oct-18 13:28N 25°51' W 079°30'  
2014-Oct-13 08:22N 26°01' W 079°26'10 8.7
2014-Oct-13 07:13N 26°03' W 079°37'6 8.6
2014-Oct-13 06:30N 26°03' W 079°44'8 8.8
2014-Oct-13 05:33N 26°02' W 079°53'8 8.3
2014-Oct-13 04:33N 26°02' W 080°02'5 5.1
2014-Oct-13 03:33N 26°04' W 080°08'  

Dump ship's entire track history